Weather History for Binghamton, NY

Change the Weather History Date:

Thursday, March 14, 2013

  Actual Average Record
Temperature  
Mean Temperature 23 °F 32 °F  
Max Temperature 30 °F 40 °F 78 °F (1990)
Min Temperature 16 °F 24 °F 4 °F (1993)
Degree Days  
Heating Degree Days 42 33  
Month to date heating degree days 483 492  
Since 1 July heating degree days 5367 5691  
Cooling Degree Days 0 0  
Month to date cooling degree days 0 0  
Year to date cooling degree days 0 0  
Moisture  
Dew Point 9 °F    
Average Humidity 53    
Maximum Humidity 74    
Minimum Humidity 31    
Precipitation  
Precipitation 0.02 in 0.09 in 0.92 in (1986)
Month to date precipitation 0.89 1.24  
Year to date precipitation 5.44 6.00  
Snow  
Snow 0.50 in 0.50 in 5.90 in (1991)
Month to date snowfall 4.0 8.3  
Since 1 July snowfall 57.8 72.2  
Snow Depth T in    
Sea Level Pressure  
Sea Level Pressure 29.90 in    
Wind  
Wind Speed 14 mph (WNW)    
Max Wind Speed 29 mph    
Max Gust Speed 43 mph    
Visibility 6 miles    
Events Snow    
T = Trace of Precipitation, MM = Missing Value Source: NWS Daily Summary

Daily Weather History Graph

Daily Weather History Graph

Search for Another Location

Airport:

Trip Planner

Search our weather history database for the weather conditions in past years. The results will help you decide how hot, cold, wet, or windy it might be!

Date:

Astronomy

Mar. 14, 2013 Rise Set
Actual Time 7:17 AM EDT 7:09 PM EDT
Civil Twilight 6:49 AM EDT 7:37 PM EDT
Nautical Twilight 6:16 AM EDT 8:10 PM EDT
Astronomical Twilight 5:43 AM EDT 8:43 PM EDT
Moon 8:25 AM EDT (3/14) 10:28 PM EDT (3/14)
Length of Visible Light 12h 48m
Length of Day
11h 52m
Waxing Crescent, 9% of the Moon is Illuminated
Mar 14
Waxing Crescent
Mar 19
First Quarter
Mar 27
Full
Apr 3
Last Quarter
Apr 10
New

Hourly Weather History & Observations

Time (EDT) Temp. Windchill Dew Point Humidity Pressure Visibility Wind Dir Wind Speed Gust Speed Precip Events Conditions
12:53 AM 21.9 °F 9.2 °F 14.0 °F 72% 29.90 in 10.0 mi West 13.8 mph - 0.00 in   Mostly Cloudy
1:53 AM 21.0 °F 9.3 °F 12.0 °F 68% 29.89 in 10.0 mi West 11.5 mph - N/A   Scattered Clouds
2:53 AM 21.0 °F 7.1 °F 14.0 °F 74% 29.88 in 9.0 mi West 16.1 mph 23.0 mph 0.00 in Snow Light Snow
3:01 AM 21.2 °F 8.3 °F 14.0 °F 74% 29.83 in 9.0 mi West 13.8 mph 23.0 mph N/A   Overcast
3:11 AM 21.2 °F 8.3 °F 14.0 °F 74% 29.83 in 1.8 mi NW 13.8 mph 20.7 mph 0.00 in Snow Light Snow
3:14 AM 19.4 °F 7.2 °F 15.8 °F 86% 29.83 in 0.8 mi NW 11.5 mph 20.7 mph 0.00 in Snow Light Snow
3:36 AM 19.4 °F 7.2 °F 15.8 °F 86% 29.83 in 1.0 mi WNW 11.5 mph 27.6 mph 0.02 in Snow Light Snow
3:40 AM 19.4 °F 6.6 °F 15.8 °F 86% 29.83 in 2.0 mi WNW 12.7 mph 23.0 mph 0.02 in Snow Light Snow
3:53 AM 19.0 °F 6.8 °F 12.0 °F 74% 29.89 in 8.0 mi WNW 11.5 mph 18.4 mph 0.02 in Snow Light Snow
4:06 AM 17.6 °F 2.2 °F 12.2 °F 79% 29.83 in 2.5 mi NW 17.3 mph 23.0 mph 0.00 in Snow Light Snow
4:14 AM 17.6 °F 2.7 °F 10.4 °F 73% 29.83 in 1.0 mi WNW 16.1 mph 28.8 mph 0.00 in Snow Light Snow
4:24 AM 17.6 °F 0.5 °F 10.4 °F 73% 29.83 in 2.5 mi WNW 21.9 mph 28.8 mph N/A Snow Light Snow
4:31 AM 17.6 °F 2.2 °F 8.6 °F 68% 29.83 in 3.0 mi WNW 17.3 mph 28.8 mph 0.00 in Snow Light Snow
4:42 AM 17.6 °F 1.7 °F 8.6 °F 68% 29.84 in 2.0 mi WNW 18.4 mph 32.2 mph 0.00 in Snow Light Snow
4:53 AM 17.1 °F 3.0 °F 6.1 °F 62% 29.90 in 5.0 mi NW 13.8 mph 29.9 mph 0.00 in   Overcast
5:08 AM 17.6 °F 0.5 °F 6.8 °F 63% 29.84 in 2.5 mi WNW 21.9 mph 32.2 mph 0.00 in Snow Light Snow
5:22 AM 17.6 °F 1.3 °F 5.0 °F 58% 29.84 in 6.0 mi WNW 19.6 mph 35.7 mph 0.00 in Snow Light Snow
5:53 AM 17.1 °F 1.5 °F 3.9 °F 56% 29.91 in 8.0 mi NW 17.3 mph 32.2 mph 0.00 in   Overcast
6:53 AM 17.1 °F 2.5 °F 7.0 °F 65% 29.93 in 9.0 mi WNW 15.0 mph 23.0 mph 0.00 in   Overcast
7:12 AM 15.8 °F 1.4 °F 6.8 °F 68% 29.87 in 5.0 mi WNW 13.8 mph 26.5 mph 0.00 in Snow Light Snow
7:34 AM 15.8 °F 3.4 °F 8.6 °F 73% 29.88 in 3.0 mi NW 10.4 mph 24.2 mph 0.00 in Snow Light Snow
7:48 AM 15.8 °F 5.1 °F 8.6 °F 73% 29.88 in 2.5 mi WNW 8.1 mph - 0.00 in Snow Light Snow
7:53 AM 16.0 °F 3.6 °F 10.0 °F 77% 29.95 in 2.5 mi WNW 10.4 mph - 0.00 in Snow Light Snow
8:38 AM 15.8 °F 1.4 °F 10.4 °F 79% 29.89 in 1.5 mi WNW 13.8 mph 23.0 mph 0.00 in Snow Light Snow
8:53 AM 17.1 °F 5.0 °F 10.9 °F 77% 29.96 in 1.5 mi WNW 10.4 mph 17.3 mph 0.00 in Snow Light Snow
9:43 AM 17.6 °F 5.0 °F 10.4 °F 73% 29.90 in 2.0 mi WNW 11.5 mph 23.0 mph N/A Snow Light Snow
9:50 AM 17.6 °F 5.0 °F 12.2 °F 79% 29.90 in 1.8 mi WNW 11.5 mph - 0.00 in Snow Light Snow
9:53 AM 18.0 °F 5.4 °F 10.9 °F 74% 29.98 in 1.5 mi NW 11.5 mph 20.7 mph 0.00 in Snow Light Snow
10:01 AM 17.6 °F 4.3 °F 12.2 °F 79% 29.90 in 1.5 mi NW 12.7 mph 20.7 mph 0.00 in Snow Light Snow
10:24 AM 17.6 °F 1.7 °F 10.4 °F 73% 29.90 in 1.5 mi WNW 18.4 mph 26.5 mph 0.00 in Snow Light Snow
10:53 AM 19.0 °F 4.5 °F 10.0 °F 68% 29.96 in 1.5 mi NW 16.1 mph 27.6 mph 0.00 in Snow Light Snow
11:38 AM 19.4 °F 3.2 °F 8.6 °F 63% 29.89 in 2.0 mi NW 20.7 mph 29.9 mph 0.00 in Snow Light Snow
11:45 AM 19.4 °F 5.0 °F 10.4 °F 68% 29.89 in 9.0 mi WNW 16.1 mph 29.9 mph 0.00 in   Overcast
11:53 AM 21.0 °F 8.1 °F 10.9 °F 65% 29.96 in 3.0 mi NW 13.8 mph 25.3 mph 0.00 in Snow Light Snow
12:05 PM 21.2 °F 6.8 °F 10.4 °F 63% 29.88 in 9.0 mi NW 17.3 mph 25.3 mph 0.00 in Snow Light Snow
12:36 PM 21.2 °F 8.3 °F 12.2 °F 68% 29.88 in 2.0 mi NW 13.8 mph 23.0 mph 0.00 in Snow Light Snow
12:53 PM 23.0 °F 10.1 °F 15.1 °F 72% 29.94 in 2.5 mi NW 15.0 mph 19.6 mph 0.00 in Snow Light Snow
1:01 PM 23.0 °F 11.1 °F 12.2 °F 63% 29.87 in 9.0 mi NW 12.7 mph 21.9 mph 0.00 in Snow Light Snow
1:18 PM 24.8 °F 11.9 °F 12.2 °F 59% 29.86 in 10.0 mi WNW 16.1 mph 21.9 mph 0.00 in   Mostly Cloudy
1:33 PM 26.6 °F 14.3 °F 10.4 °F 51% 29.85 in 10.0 mi WNW 16.1 mph 29.9 mph 0.00 in   Mostly Cloudy
1:53 PM 27.0 °F 14.7 °F 7.0 °F 43% 29.92 in 10.0 mi NW 16.1 mph 31.1 mph 0.00 in   Partly Cloudy
2:53 PM 28.9 °F 16.5 °F 5.0 °F 36% 29.91 in 10.0 mi WNW 18.4 mph 27.6 mph N/A   Clear
3:53 PM 30.0 °F 17.9 °F 3.9 °F 33% 29.90 in 10.0 mi WNW 18.4 mph 35.7 mph N/A   Clear
4:53 PM 28.9 °F 16.1 °F 5.0 °F 36% 29.91 in 10.0 mi NW 19.6 mph 29.9 mph N/A   Clear
5:53 PM 28.0 °F 15.3 °F 3.0 °F 34% 29.93 in 10.0 mi NW 18.4 mph 31.1 mph N/A   Scattered Clouds
6:53 PM 26.1 °F 13.1 °F 1.9 °F 35% 29.94 in 10.0 mi NW 17.3 mph 28.8 mph N/A   Clear
7:53 PM 25.0 °F 13.1 °F 3.0 °F 39% 29.96 in 10.0 mi NW 13.8 mph 21.9 mph N/A   Clear
8:53 PM 25.0 °F 14.2 °F 5.0 °F 43% 29.97 in 10.0 mi NW 11.5 mph 18.4 mph N/A   Clear
9:53 PM 24.1 °F 14.4 °F 7.0 °F 48% 29.98 in 10.0 mi NW 9.2 mph 18.4 mph N/A   Clear
10:53 PM 24.1 °F 11.0 °F 8.1 °F 51% 29.98 in 10.0 mi NW 16.1 mph 23.0 mph N/A   Clear
11:53 PM 23.0 °F 10.6 °F 9.0 °F 55% 29.99 in 10.0 mi NW 13.8 mph 21.9 mph N/A   Clear